Terminal Aerodrome Forecast
Issued by NWS Milwaukee/Sullivan, WI

Home | Current Version | Previous Version | Text Only | Print | Product List | Glossary On
Versions: 1 2 3 4 5 6 7 8 9 10 11 12 13 14 15 16 17 18 19 20 21 22 23 24 25 26 27 28 29 30 31 32 33 34 35 36 37 38 39 40 41 42 43 44 45 46 47 48 49 50
000
FTUS43 KMKX 210711 AAA
TAFMKE
TAF AMD
KMKE 210711Z 2107/2212 28013G22KT P6SM BKN015
      TEMPO 2108/2109 SCT015 SCT025
     FM210900 28012G21KT P6SM SCT025
     FM211200 31011G19KT P6SM SCT015 BKN035
      TEMPO 2112/2114 BKN015
     FM211400 33013G22KT P6SM OVC015
     FM212000 35015G22KT P6SM SCT040
     FM212300 36011KT P6SM SCT200=

USA.gov is the U.S. government's official web portal to all federal, state and local government web resources and services.